{"data":{"norad_id":57086,"intl_designator":"2023-088AQ","name":"STARLINK-6247","alt_names":[],"object_type":"PAYLOAD","status":"ACTIVE","operator":null,"country":"US","launch_date":"2023-06-22","launch_site_code":"AFWTR","launch_vehicle":null,"mission":null,"orbit_class":"UNKNOWN","rcs_meters":null,"size_class":null,"mass_kg":null,"dimensions":null,"purposes":["comms"],"wikipedia_slug":null,"has_3d_model":false,"image_url":null,"decayed_at":null,"tle_current":{"epoch":"2026-09-20T21:10:49.753920Z","epoch_age_seconds":87923,"freshness":"FRESH","line1":"1 57086U 23088AQ  26263.88252030  .00000379  00000+0  23297-4 0  9999","line2":"2 57086  43.0041  73.6855 0001633 254.2743 105.7929 15.27578270180358","mean_motion":15.2757827,"eccentricity":0.0001633,"inclination_deg":43.0041,"raan_deg":73.6855,"arg_perigee_deg":254.2743,"mean_anomaly_deg":105.7929,"bstar":2.3297e-5,"rev_number":18035,"period_min":94.266855471831,"perigee_km":481.93384375149,"apogee_km":484.17470882232,"semimajor_km":6861.1912762869,"source":"CELESTRAK","updated_at":"2026-09-21T09:00:33.555905Z"}}}